KF5JED-13 Weather Reports


time (UTC)temp
F
wind
direction
speed
knots
gust
knots
rain 1hr
in
rain 24hr
in
rain mn
in
humidity
%
barometer
mb
20260509183036 87 239 8.7 14.8 0.00 0.00 0.00 23 1010.8
20260509182533 86 221 13.0 22.6 0.00 0.00 0.00 23 1010.8
20260509182025 86 205 11.3 19.1 0.00 0.00 0.00 24 1010.9
20260509181523 86 221 9.6 13.9 0.00 0.00 0.00 25 1011.1
20260509181020 86 227 10.4 13.9 0.00 0.00 0.00 25 1011.3
20260509180515 85 212 9.6 14.8 0.00 0.00 0.00 26 1011.3
20260509180014 87 200 13.9 20.0 0.00 0.00 0.00 24 1011.5
20260509175508 84 207 4.3 11.3 0.00 0.00 0.00 27 1011.6
20260509175005 84 228 13.9 21.7 0.00 0.00 0.00 27 1011.7
20260509174502 83 212 10.4 14.8 0.00 0.00 0.00 28 1011.8
20260509173956 86 197 14.8 16.5 0.00 0.00 0.00 26 1011.8
20260509173451 85 218 11.3 16.5 0.00 0.00 0.00 28 1011.9
20260509172948 84 174 8.7 17.4 0.00 0.00 0.00 28 1011.8
20260509172445 83 203 9.6 12.2 0.00 0.00 0.00 30 1012.0
20260509171940 83 198 10.4 17.4 0.00 0.00 0.00 29 1012.2
20260509171437 83 210 8.7 13.9 0.00 0.00 0.00 30 1012.1
20260509170933 84 190 9.6 14.8 0.00 0.00 0.00 29 1012.1
20260509170429 83 200 14.8 20.9 0.00 0.00 0.00 30 1011.9
20260509165925 82 194 6.1 14.8 0.00 0.00 0.00 32 1012.1
20260509165419 82 204 6.1 16.5 0.00 0.00 0.00 33 1012.3
20260509164915 82 172 9.6 17.4 0.00 0.00 0.00 32 1012.3
20260509164411 81 197 13.0 16.5 0.00 0.00 0.00 32 1012.3
20260509163907 82 203 12.2 14.8 0.00 0.00 0.00 32 1012.5
20260509163404 80 213 13.0 17.4 0.00 0.00 0.00 34 1012.6
20260509162903 80 203 7.0 18.2 0.00 0.00 0.00 35 1012.8
20260509162402 80 202 9.6 19.1 0.00 0.00 0.00 35 1012.6
20260509161858 79 161 6.1 14.8 0.00 0.00 0.00 37 1012.8
20260509161354 80 176 10.4 15.6 0.00 0.00 0.00 36 1012.9
20260509160850 79 164 9.6 13.9 0.00 0.00 0.00 36 1012.8
20260509160346 79 164 7.8 17.4 0.00 0.00 0.00 37 1013.0
20260509155841 78 168 9.6 16.5 0.00 0.00 0.00 39 1012.9
20260509155338 77 172 7.8 17.4 0.00 0.00 0.00 38 1013.0
20260509154834 78 164 11.3 16.5 0.00 0.00 0.00 36 1012.9
20260509154331 78 159 12.2 14.8 0.00 0.00 0.00 40 1013.2
20260509153828 77 179 7.8 12.2 0.00 0.00 0.00 42 1013.1
20260509153324 76 152 12.2 13.0 0.00 0.00 0.00 41 1013.1
20260509152822 76 178 12.2 13.0 0.00 0.00 0.00 42 1013.0
20260509152317 75 193 7.0 15.6 0.00 0.00 0.00 46 1013.2
20260509151815 74 159 9.6 9.6 0.00 0.00 0.00 47 1013.3
20260509151311 74 186 7.8 13.9 0.00 0.00 0.00 47 1013.3
20260509150810 74 174 8.7 13.9 0.00 0.00 0.00 46 1013.3
20260509150307 74 187 8.7 12.2 0.00 0.00 0.00 49 1013.2
20260509145804 74 170 7.8 11.3 0.00 0.00 0.00 48 1013.2
20260509145306 74 164 10.4 12.2 0.00 0.00 0.00 51 1013.3
20260509144800 72 119 5.2 8.7 0.00 0.00 0.00 54 1013.5
20260509144257 71 162 7.8 9.6 0.00 0.00 0.00 53 1013.3
20260509143755 71 151 9.6 12.2 0.00 0.00 0.00 53 1013.5
20260509143252 72 155 7.8 11.3 0.00 0.00 0.00 52 1013.5
20260509142748 71 152 10.4 13.9 0.00 0.00 0.00 53 1013.6
20260509142244 71 159 11.3 14.8 0.00 0.00 0.00 52 1013.3
20260509141740 71 165 7.8 11.3 0.00 0.00 0.00 53 1013.6
20260509141237 70 130 4.3 6.1 0.00 0.00 0.00 54 1013.5
20260509140734 70 148 2.6 4.3 0.00 0.00 0.00 54 1013.5
20260509140231 70 95 2.6 3.5 0.00 0.00 0.00 50 1013.6
20260509135728 68 10 1.7 1.7 0.00 0.00 0.00 47 1013.6
20260509135226 66 4 1.7 1.7 0.00 0.00 0.00 47 1013.6
20260509134723 64 63 1.7 2.6 0.00 0.00 0.00 50 1013.7
20260509134221 62 17 1.7 2.6 0.00 0.00 0.00 50 1013.6
20260509133718 62 322 2.6 3.5 0.00 0.00 0.00 48 1013.7
20260509133214 66 19 2.6 3.5 0.00 0.00 0.00 47 1013.3
20260509132713 66 61 1.7 2.6 0.00 0.00 0.00 46 1013.6
20260509132211 64 50 0.0 1.7 0.00 0.00 0.00 49 1013.8
20260509131707 63 85 3.5 3.5 0.00 0.00 0.00 48 1013.3
20260509131204 61 77 0.9 1.7 0.00 0.00 0.00 51 1013.6
20260509130659 62 110 0.0 1.7 0.00 0.00 0.00 49 1013.7
20260509130150 59 142 0.0 0.0 0.00 0.00 0.00 53 1013.6
20260509125646 59 126 0.0 1.7 0.00 0.00 0.00 53 1013.5
20260509125143 58 89 1.7 1.7 0.00 0.00 0.00 54 1013.7
20260509124640 57 60 0.9 1.7 0.00 0.00 0.00 56 1013.3
20260509124137 55 48 1.7 1.7 0.00 0.00 0.00 58 1013.6
20260509123635 55 131 0.0 0.0 0.00 0.00 0.00 58 1013.5
20260509123131 54 102 0.9 1.7 0.00 0.00 0.00 62 1013.5
20260509122627 53 76 0.0 1.7 0.00 0.00 0.00 63 1013.6
20260509122124 51 93 0.9 1.7 0.00 0.00 0.00 66 1013.3
20260509121620 50 103 1.7 1.7 0.00 0.00 0.00 67 1013.3
20260509121119 49 132 1.7 1.7 0.00 0.00 0.00 68 1013.3
20260509120616 49 121 0.0 1.7 0.00 0.00 0.00 67 1013.2
20260509120115 49 117 1.7 3.5 0.00 0.00 0.00 68 1013.2
20260509115611 49 123 0.9 1.7 0.00 0.00 0.00 67 1013.3
20260509115109 49 110 1.7 1.7 0.00 0.00 0.00 68 1013.5
20260509114607 49 108 0.0 0.9 0.00 0.00 0.00 66 1013.3
20260509114106 50 26 0.0 0.9 0.00 0.00 0.00 66 1013.5
20260509113603 49 46 0.9 1.7 0.00 0.00 0.00 67 1013.3
20260509113101 49 66 0.0 0.9 0.00 0.00 0.00 65 1013.6
20260509112557 50 67 0.9 1.7 0.00 0.00 0.00 63 1013.7
20260509112054 51 116 0.0 0.0 0.00 0.00 0.00 63 1013.6
20260509111551 50 157 0.0 0.9 0.00 0.00 0.00 64 1013.5
20260509111048 51 112 1.7 1.7 0.00 0.00 0.00 63 1013.3
20260509110545 51 120 0.9 1.7 0.00 0.00 0.00 62 1013.5
20260509110042 51 110 1.7 1.7 0.00 0.00 0.00 62 1013.3
20260509105540 51 98 1.7 1.7 0.00 0.00 0.00 63 1013.5
20260509105038 51 141 0.0 1.7 0.00 0.00 0.00 63 1013.7
20260509104534 50 49 0.0 1.7 0.00 0.00 0.00 63 1013.7
20260509104031 50 92 0.0 0.9 0.00 0.00 0.00 62 1013.8
20260509103529 51 119 0.0 0.9 0.00 0.00 0.00 61 1013.6
20260509103027 51 106 0.9 1.7 0.00 0.00 0.00 61 1013.8
20260509102525 51 124 0.0 1.7 0.00 0.00 0.00 61 1013.6
20260509102021 51 155 0.9 1.7 0.00 0.00 0.00 61 1013.8
20260509101517 51 126 0.9 0.9 0.00 0.00 0.00 60 1013.6
20260509101014 52 141 0.0 0.0 0.00 0.00 0.00 59 1013.8
20260509100512 53 136 1.7 1.7 0.00 0.00 0.00 57 1013.7
20260509100009 55 150 1.7 1.7 0.00 0.00 0.00 55 1013.7
20260509095505 56 122 2.6 5.2 0.00 0.00 0.00 53 1013.5
20260509095002 57 129 2.6 4.3 0.00 0.00 0.00 53 1013.7
20260509094458 57 116 2.6 4.3 0.00 0.00 0.00 53 1013.8
20260509093956 57 113 3.5 5.2 0.00 0.00 0.00 53 1013.6
20260509093454 58 138 3.5 6.1 0.00 0.00 0.00 52 1013.7
20260509092952 58 119 3.5 7.8 0.00 0.00 0.00 51 1013.5
20260509092449 57 135 4.3 7.0 0.00 0.00 0.00 51 1013.8
20260509091948 57 131 3.5 6.1 0.00 0.00 0.00 51 1013.5
20260509091444 58 96 2.6 5.2 0.00 0.00 0.00 50 1013.3
20260509090942 59 92 3.5 7.8 0.00 0.00 0.00 49 1013.3
20260509090439 59 102 5.2 7.8 0.00 0.00 0.00 49 1013.5
20260509085937 59 102 5.2 6.1 0.00 0.00 0.00 48 1013.6
20260509085433 60 106 3.5 8.7 0.00 0.00 0.00 48 1013.6
20260509084929 60 94 4.3 6.1 0.00 0.00 0.00 48 1013.5
20260509084426 60 115 6.1 7.8 0.00 0.00 0.00 47 1013.2
20260509083924 60 101 3.5 10.4 0.00 0.00 0.00 46 1013.3
20260509083421 61 93 9.6 11.3 0.00 0.00 0.00 46 1013.6
20260509082918 61 110 4.3 10.4 0.00 0.00 0.00 46 1013.3
20260509082415 61 110 8.7 12.2 0.00 0.00 0.00 45 1013.2
20260509081912 61 89 6.1 11.3 0.00 0.00 0.00 45 1013.0
20260509081409 61 99 7.0 12.2 0.00 0.00 0.00 45 1013.0
20260509080907 61 91 7.8 11.3 0.00 0.00 0.00 46 1013.1
20260509080404 60 89 8.7 12.2 0.00 0.00 0.00 46 1013.2
20260509075903 61 103 7.0 9.6 0.00 0.00 0.00 46 1013.3
20260509075359 60 97 8.7 10.4 0.00 0.00 0.00 46 1013.5
20260509074856 60 92 3.5 9.6 0.00 0.00 0.00 47 1013.2
20260509074354 59 84 5.2 7.0 0.00 0.00 0.00 47 1013.5
20260509073850 59 101 7.0 8.7 0.00 0.00 0.00 47 1013.3
20260509073347 59 96 3.5 6.1 0.00 0.00 0.00 47 1013.7
20260509072843 60 88 2.6 7.8 0.00 0.00 0.00 46 1013.6
20260509072340 61 95 7.0 10.4 0.00 0.00 0.00 45 1013.2
20260509071837 62 87 6.1 12.2 0.00 0.00 0.00 44 1013.5
20260509071333 62 89 7.8 11.3 0.00 0.00 0.00 44 1013.7
20260509070831 62 87 7.0 9.6 0.00 0.00 0.00 44 1013.5
20260509070327 62 92 6.1 11.3 0.00 0.00 0.00 44 1013.5
20260509065824 62 102 7.8 11.3 0.00 0.00 0.00 44 1013.5
20260509065320 61 86 5.2 11.3 0.00 0.00 0.00 45 1013.6
20260509064816 61 97 3.5 8.7 0.00 0.00 0.00 45 1013.3
20260509064314 61 88 6.1 10.4 0.00 0.00 0.00 45 1013.2
20260509063811 62 86 7.8 13.0 0.00 0.00 0.00 44 1012.9
20260509063307 61 85 6.1 9.6 0.00 0.00 0.00 44 1012.9
20260509062804 61 98 7.8 9.6 0.00 0.00 0.00 44 1012.9
20260509062305 62 83 5.2 9.6 0.00 0.00 0.00 43 1012.8
20260509061758 63 80 5.2 8.7 0.00 0.00 0.00 42 1012.9
20260509061256 64 92 8.7 9.6 0.00 0.00 0.00 41 1013.0
20260509060753 63 70 8.7 12.2 0.00 0.00 0.00 41 1012.6
20260509060250 63 59 7.8 8.7 0.00 0.00 0.00 41 1012.8
20260509055746 64 75 7.0 9.6 0.00 0.00 0.00 41 1013.0
20260509055241 63 63 7.8 9.6 0.00 0.00 0.00 41 1012.9
20260509054738 63 73 7.0 10.4 0.00 0.00 0.00 41 1013.1
20260509054235 62 91 3.5 7.8 0.00 0.00 0.00 42 1013.0
20260509053734 62 89 7.0 7.8 0.00 0.00 0.00 41 1012.9
20260509053230 63 77 5.2 7.8 0.00 0.00 0.00 41 1013.1
20260509052728 62 77 5.2 7.0 0.00 0.00 0.00 41 1013.2
20260509052226 63 91 5.2 8.7 0.00 0.00 0.00 40 1013.2
20260509051723 63 91 5.2 7.0 0.00 0.00 0.00 40 1013.5
20260509051221 63 97 5.2 7.0 0.00 0.00 0.00 40 1013.5
20260509050717 63 92 6.1 7.8 0.00 0.00 0.00 40 1013.3
20260509050214 64 86 6.1 7.8 0.00 0.00 0.00 40 1013.2
20260509045711 65 96 3.5 7.0 0.00 0.00 0.00 39 1013.1
20260509045208 65 86 5.2 8.7 0.00 0.00 0.00 38 1013.2
20260509044706 64 91 4.3 7.0 0.00 0.00 0.00 39 1013.3
20260509044203 64 105 5.2 5.2 0.00 0.00 0.00 39 1013.2
20260509043659 64 84 7.0 7.8 0.00 0.00 0.00 40 1013.1
20260509043155 63 106 5.2 6.1 0.00 0.00 0.00 39 1013.3
20260509042651 63 94 1.7 2.6 0.00 0.00 0.00 40 1013.3
20260509042148 64 95 0.9 3.5 0.00 0.00 0.00 40 1013.2
20260509041644 65 88 3.5 4.3 0.00 0.00 0.00 38 1013.1
20260509041142 65 94 3.5 4.3 0.00 0.00 0.00 38 1013.2
20260509040640 66 89 3.5 5.2 0.00 0.00 0.00 38 1013.2
20260509040137 66 91 3.5 5.2 0.00 0.00 0.00 37 1013.1
20260509035634 67 91 4.3 6.1 0.00 0.00 0.00 37 1013.1
20260509035130 66 85 5.2 6.1 0.00 0.00 0.00 37 1013.0
20260509034628 66 87 5.2 5.2 0.00 0.00 0.00 37 1013.2
20260509034125 67 98 6.1 6.1 0.00 0.00 0.00 36 1013.1
20260509033622 66 92 4.3 7.0 0.00 0.00 0.00 36 1013.1
20260509033119 65 126 4.3 6.1 0.00 0.00 0.00 37 1013.0
20260509032616 66 138 3.5 6.1 0.00 0.00 0.00 35 1012.9
20260509032113 68 97 5.2 7.0 0.00 0.00 0.00 35 1012.8
20260509031611 68 80 4.3 7.0 0.00 0.00 0.00 36 1012.7
20260509031108 67 84 3.5 6.1 0.00 0.00 0.00 36 1012.6
20260509030606 65 117 2.6 3.5 0.00 0.00 0.00 37 1012.9
20260509025559 68 129 4.3 5.2 0.00 0.00 0.00 34 1012.7
20260509025054 69 78 4.3 5.2 0.00 0.00 0.00 34 1012.6
20260509024550 69 76 5.2 6.1 0.00 0.00 0.00 34 1012.5
20260509024046 70 77 4.3 6.1 0.00 0.00 0.00 33 1012.6
20260509023545 71 66 5.2 8.7 0.00 0.00 0.00 32 1012.5
20260509023041 71 74 5.2 7.8 0.00 0.00 0.00 32 1012.6
20260509022538 71 77 5.2 6.1 0.00 0.00 0.00 32 1012.3
20260509022036 71 80 3.5 6.1 0.00 0.00 0.00 32 1012.1
20260509021532 71 82 4.3 7.0 0.00 0.00 0.00 32 1012.2
20260509021029 71 91 3.5 5.2 0.00 0.00 0.00 32 1012.3
20260509020528 71 86 3.5 6.1 0.00 0.00 0.00 31 1012.2
20260509020024 72 85 4.3 7.0 0.00 0.00 0.00 31 1012.2
20260509015523 73 77 3.5 7.8 0.00 0.00 0.00 31 1012.0
20260509015020 73 69 5.2 6.1 0.00 0.00 0.00 30 1012.0
20260509014517 73 46 3.5 6.1 0.00 0.00 0.00 30 1011.9
20260509014013 74 61 4.3 5.2 0.00 0.00 0.00 29 1011.9
20260509013510 75 42 2.6 5.2 0.00 0.00 0.00 28 1011.9
20260509013005 75 50 5.2 7.8 0.00 0.00 0.00 29 1011.9
20260509012502 76 68 7.0 7.0 0.00 0.00 0.00 28 1011.9
20260509011959 76 43 3.5 7.0 0.00 0.00 0.00 27 1011.8
20260509011457 77 53 4.3 7.8 0.00 0.00 0.00 27 1011.7
20260509010954 77 42 5.2 11.3 0.00 0.00 0.00 26 1011.7
20260509010452 78 23 4.3 8.7 0.00 0.00 0.00 26 1011.7
20260509005948 78 17 5.2 9.6 0.00 0.00 0.00 25 1011.6
20260509005446 78 31 4.3 8.7 0.00 0.00 0.00 25 1011.6
20260509004940 79 22 5.2 7.0 0.00 0.00 0.00 25 1011.5
20260509004437 79 7 6.1 8.7 0.00 0.00 0.00 25 1011.7
20260509003935 79 21 5.2 9.6 0.00 0.00 0.00 25 1011.3
20260509003433 79 9 7.0 11.3 0.00 0.00 0.00 25 1011.3
20260509002930 79 8 7.0 11.3 0.00 0.00 0.00 25 1011.5
20260509002428 80 11 6.1 8.7 0.00 0.00 0.00 25 1011.2
20260509001924 80 20 7.0 11.3 0.00 0.00 0.00 25 1011.5
20260509001421 80 42 8.7 12.2 0.00 0.00 0.00 24 1011.3
20260509000918 80 16 8.7 12.2 0.00 0.00 0.00 24 1011.3
20260509000418 80 18 6.1 8.7 0.00 0.00 0.00 24 1011.2
20260508235911 80 9 8.7 16.5 0.00 0.00 0.00 24 1011.2
20260508235409 80 0 11.3 14.8 0.00 0.00 0.00 24 1011.2
20260508234906 80 24 7.0 14.8 0.00 0.00 0.00 24 1011.2
20260508234403 80 1 10.4 14.8 0.00 0.00 0.00 24 1011.2
20260508233901 80 6 13.0 18.2 0.00 0.00 0.00 24 1011.2
20260508233400 81 3 7.8 12.2 0.00 0.00 0.00 24 1011.1
20260508232856 81 6 12.2 17.4 0.00 0.00 0.00 24 1011.0
20260508232353 81 21 8.7 16.5 0.00 0.00 0.00 24 1011.1
20260508231851 81 354 5.2 11.3 0.00 0.00 0.00 24 1011.2
20260508231347 82 355 8.7 14.8 0.00 0.00 0.00 23 1011.2
20260508230844 82 8 7.8 9.6 0.00 0.00 0.00 24 1011.1
20260508230340 81 51 3.5 10.4 0.00 0.00 0.00 24 1011.2
20260508225838 82 22 6.1 9.6 0.00 0.00 0.00 23 1011.1
20260508225334 82 21 6.1 9.6 0.00 0.00 0.00 23 1011.1
20260508224833 82 11 8.7 11.3 0.00 0.00 0.00 23 1011.1
20260508224330 82 358 13.0 16.5 0.00 0.00 0.00 23 1011.0
20260508223827 81 36 8.7 13.9 0.00 0.00 0.00 24 1011.0
20260508223324 82 10 10.4 13.9 0.00 0.00 0.00 23 1011.1
20260508222822 82 36 3.5 8.7 0.00 0.00 0.00 24 1011.1
20260508222319 82 11 6.1 13.0 0.00 0.00 0.00 24 1011.0
20260508221815 81 24 4.3 11.3 0.00 0.00 0.00 24 1010.9
20260508221311 82 5 13.0 17.4 0.00 0.00 0.00 24 1011.0
20260508220807 82 356 7.8 13.0 0.00 0.00 0.00 23 1011.1
20260508220304 82 14 10.4 19.1 0.00 0.00 0.00 24 1011.1
20260508215801 82 355 15.6 16.5 0.00 0.00 0.00 23 1010.8
20260508215257 82 22 8.7 14.8 0.00 0.00 0.00 23 1010.9
20260508214754 82 11 10.4 14.8 0.00 0.00 0.00 24 1011.0
20260508214251 82 23 9.6 13.0 0.00 0.00 0.00 23 1010.9
20260508213748 82 14 9.6 14.8 0.00 0.00 0.00 22 1010.9
20260508213244 83 23 10.4 14.8 0.00 0.00 0.00 22 1011.0
20260508212735 82 28 7.8 13.0 0.00 0.00 0.00 21 1010.8
20260508212232 82 12 13.9 18.2 0.00 0.00 0.00 22 1010.9
20260508211727 83 2 7.8 19.1 0.00 0.00 0.00 21 1010.9
20260508211223 82 4 7.0 17.4 0.00 0.00 0.00 22 1010.9
20260508210721 83 30 9.6 13.9 0.00 0.00 0.00 22 1010.7
20260508210218 83 28 11.3 19.1 0.00 0.00 0.00 23 1011.0
20260508205715 83 38 10.4 14.8 0.00 0.00 0.00 22 1011.1
20260508205211 83 27 13.0 16.5 0.00 0.00 0.00 22 1011.0
20260508204707 83 331 9.6 14.8 0.00 0.00 0.00 21 1011.1
20260508204204 83 11 9.6 14.8 0.00 0.00 0.00 22 1011.0
20260508203700 83 3 16.5 18.2 0.00 0.00 0.00 21 1011.0
20260508203156 84 46 10.4 13.0 0.00 0.00 0.00 22 1011.2
20260508202652 83 337 9.6 16.5 0.00 0.00 0.00 21 1011.1
20260508202150 82 12 4.3 10.4 0.00 0.00 0.00 23 1011.0
20260508201646 82 346 8.7 13.9 0.00 0.00 0.00 21 1011.0
20260508201143 83 31 9.6 12.2 0.00 0.00 0.00 22 1011.1
20260508200640 82 346 6.1 14.8 0.00 0.00 0.00 22 1011.1
20260508200136 83 0 10.4 16.5 0.00 0.00 0.00 23 1011.1
20260508195633 83 351 11.3 13.9 0.00 0.00 0.00 24 1011.0
20260508195129 83 27 7.8 11.3 0.00 0.00 0.00 25 1011.0
20260508194626 82 62 6.1 12.2 0.00 0.00 0.00 26 1011.3
20260508194123 82 353 11.3 13.0 0.00 0.00 0.00 24 1011.2
20260508193620 83 351 11.3 14.8 0.00 0.00 0.00 25 1011.1
20260508193116 81 56 3.5 8.7 0.00 0.00 0.00 26 1011.3
20260508192613 81 0 10.4 13.9 0.00 0.00 0.00 25 1011.3
20260508192110 82 0 10.4 13.0 0.00 0.00 0.00 24 1011.3
20260508191607 83 82 8.7 12.2 0.00 0.00 0.00 25 1011.1
20260508191104 81 352 13.9 15.6 0.00 0.00 0.00 24 1011.2
20260508190601 81 343 8.7 9.6 0.00 0.00 0.00 25 1011.2
20260508190057 81 351 6.1 13.9 0.00 0.00 0.00 25 1011.5
20260508185554 81 328 9.6 12.2 0.00 0.00 0.00 25 1011.2
20260508185053 81 343 6.1 13.9 0.00 0.00 0.00 25 1011.3
20260508184549 81 6 4.3 15.6 0.00 0.00 0.00 25 1011.1
20260508184046 82 0 9.6 9.6 0.00 0.00 0.00 24 1011.2
20260508183542 81 346 0.9 8.7 0.00 0.00 0.00 24 1011.3